Regional Weather Roundup
Issued by NWS

Home | Current Version | Previous Version | Text Only | Print | Product List | Glossary On
Versions: 1 2 3 4 5 6 7 8 9 10 11 12 13 14 15 16 17 18 19 20 21 22 23 24 25 26 27
000
ASUS45 KBOU 250407
RWRCO

WEATHER ROUNDUP FOR COLORADO
NATIONAL WEATHER SERVICE DENVER/BOULDER CO
900 PM MST FRI FEB 24 2017

NOTE: "FAIR" INDICATES FEW OR NO CLOUDS BELOW 12000 FEET WITH NO
SIGNIFICANT WEATHER AND/OR OBSTRUCTIONS TO VISIBILITY.

COZ001>005-013-030-031-250500-
...NORTHWEST COLORADO...

CITY           SKY/WX    TMP DP  RH WIND       PRES   REMARKS
CRAIG          CLOUDY    10   6  84 CALM      30.05R
HAYDEN         FAIR      10   1  67 CALM      30.02R
MEEKER         CLOUDY    20  14  77 CALM      30.04R
MOUNT WERNER   NOT AVBL
STEAMBOAT SPGS FAIR      11   6  79 CALM      30.01R
WALDEN         NOT AVBL
$$

COZ006>008-011-250500-
...WEST CENTRAL VALLEYS...

CITY           SKY/WX    TMP DP  RH WIND       PRES   REMARKS
GRAND JUNCTION FAIR      21  17  84 CALM      30.09R
MONTROSE       FAIR      21  15  78 S6        30.09R WCI  13
EAGLE          LGT SNOW  19  16  86 NE7       30.04R FOG     WCI  10
RIFLE          LGT SNOW  23  22  96 W5        30.07R VSB 3/4 WCI  17
DELTA          FAIR      24  15  69 CALM      30.08R
NUCLA          FAIR      27  10  50 SE3       30.10R
$$

COZ017>023-064>068-250500-
...SOUTHWEST COLORADO...

CITY           SKY/WX    TMP DP  RH WIND       PRES   REMARKS
DURANGO        FAIR      24   7  48 W10       30.02R WCI  14
CORTEZ         FAIR      24  16  71 CALM      30.07R
PAGOSA SPRINGS FAIR      15   5  64 CALM      30.00R
TELLURIDE      LGT SNOW  12   9  85 SW3       30.00R
WOLF CREEK PAS LGT SNOW   1   0  92 SW9G20    29.90R WCI -14
$$

COZ009-010-012-014-032>034-037-058>063-250500-
...CENTRAL COLORADO...

CITY           SKY/WX    TMP DP  RH WIND       PRES   REMARKS
ASPEN          FLURRIES  16  11  80 VRB3      29.96R
BUENA VISTA    FAIR      18   6  59 NW9G16    29.94R WCI   6
COPPER MTN     LGT SNOW   5  -4  66 MISG      29.79R
BERTHOUD PASS  LGT SNOW  -6 -17  59 N20G26    29.74R WCI -29
COTTONWOOD PAS CLOUDY    14   0  52 W5        29.88R WCI   6
GUNNISON       FAIR      15   7  70 W3        29.99R
KREMMLING      CLOUDY    21  10  63 CALM      29.99R
LEADVILLE      FLURRIES   4  -2  76 CALM      29.87R
MONARCH PASS   CLOUDY     1  -4  78 W21G29    29.91R WCI -20
SALIDA         MOCLDY    22   5  49 W12       30.03R WCI  10
SUNLIGHT       NOT AVBL
WILKERSON PASS CLOUDY     5   1  85 SW6       29.84R WCI  -6
$$

COZ069>075-250500-
...SAN LUIS VALLEY/SANGRE DE CRISTO MOUNTAINS...

CITY           SKY/WX    TMP DP  RH WIND       PRES   REMARKS
ALAMOSA        FAIR      18  14  84 W3        29.97R
LA VETA PASS   MOCLDY     9   5  85 S9G17     29.88R WCI  -5
SAGUACHE       FAIR      18   5  57 NW13      29.97R WCI   4
$$

COZ035-036-038>040-250500-
...NORTHERN COLORADO FRONT RANGE...

CITY           SKY/WX    TMP DP  RH WIND       PRES   REMARKS
DENVER INTL AP FAIR      17  13  84 SE7       30.02R WCI   8
DMNS CITY PARK   N/A     23  14  67 W2        30.03S
AURORA         MOCLDY    19  16  89 SE5       30.02R WCI  12
FRONT RANGE AP NOT AVBL
ERIE MUNI ARPT FAIR      22  19  88 CALM      30.04R
BOULDER MUN AP FAIR      21  18  86 SW5       30.03R WCI  15
CENTENNIAL     CLOUDY    20  12  71 CALM      30.01R
BROOMFIELD     CLOUDY    21  18  86 W5        30.02R WCI  15
FORT COLLINS   FAIR      20  16  84 S3        30.05R
LONGMONT       FAIR      19  14  82 W3        30.06S
$$

COZ041-046-047-076>085-087-088-250500-
...PIKES PEAK/PALMER DIVIDE AND SOUTHERN FOOTHILLS...

CITY           SKY/WX    TMP DP  RH WIND       PRES   REMARKS
COLO. SPRINGS  LGT SNOW  20  15  81 E3        30.02R FOG
A. F. ACADEMY  LGT SNOW  18  14  85 CALM      29.98R FOG
SCHRIEVER AFB  FAIR      17  12  80 NE3       30.02R
ELLICOTT       FAIR     N/A N/A N/A E8        30.00R
FALCON         FLURRIES  17  14  90 CALM      30.00R
FORT CARSON    CLOUDY    22  13  69 SE7       30.02R WCI  13
LIMON          FAIR      14  12  92 N3        30.04R
MONUMENT HILL  LGT SNOW  16  12  86 CALM      29.98R
TRINIDAD       FAIR      20   7  57 S5        30.02R WCI  13
$$

COZ042>045-048>051-090-091-250500-
...NORTHEAST COLORADO...

CITY           SKY/WX    TMP DP  RH WIND       PRES   REMARKS
GREELEY ARPT   FAIR      20  15  81 S3        30.07R
AKRON          FAIR      16  11  80 NW3       30.06R
BURLINGTON     CLOUDY    23  15  71 NW5       30.10R WCI  17
WRAY           NOT AVBL
STERLING       FAIR      16  14  93 SW6       30.08R WCI   7
HOLYOKE        FAIR      19  16  86 W3        30.11R
FORT MORGAN    MOCLDY    22  17  82 CALM      30.07S
$$

COZ086-089-092>099-250500-
...SOUTHEAST COLORADO...

CITY           SKY/WX    TMP DP  RH WIND       PRES   REMARKS
PUEBLO         CLOUDY    27  10  49 E7        30.07R WCI  19
LA JUNTA       MOCLDY    26  12  55 E7        30.09R WCI  18
LAMAR          FAIR      23  12  62 E5        30.10R WCI  17
SPRINGFIELD      N/A     20  12  71 NE9       30.07R WCI   9
$$




USA.gov is the U.S. government's official web portal to all federal, state and local government web resources and services.